| time (UTC) | temp F | wind direction | speed MPH | gust MPH | rain 1hr in | rain 24hr in | rain mn in | humidity % | barometer mb |
| 20260904181440 | 88 | 279 | 3.0 | 19.0 | 0.00 | 0.48 | 0.00 | 59 | 1014.9 |
| 20260904180940 | 89 | 242 | 4.0 | 19.0 | 0.00 | 0.48 | 0.00 | 58 | 1014.9 |
| 20260904180441 | 88 | 263 | 4.0 | 14.0 | 0.00 | 0.48 | 0.00 | 57 | 1015.0 |
| 20260904175939 | 89 | 246 | 3.0 | 14.0 | 0.00 | 0.48 | 0.00 | 55 | 1014.9 |
| 20260904175437 | 89 | 312 | 3.0 | 12.0 | 0.00 | 0.48 | 0.00 | 56 | 1015.0 |
| 20260904174937 | 89 | 162 | 3.0 | 11.0 | 0.00 | 0.48 | 0.00 | 56 | 1014.9 |
| 20260904174437 | 89 | 184 | 3.0 | 9.0 | 0.00 | 0.48 | 0.00 | 59 | 1014.9 |
| 20260904173936 | 88 | 274 | 4.0 | 14.0 | 0.00 | 0.48 | 0.00 | 59 | 1014.9 |
| 20260904173437 | 88 | 271 | 3.0 | 14.0 | 0.00 | 0.48 | 0.00 | 58 | 1014.9 |
| 20260904172936 | 89 | 239 | 2.0 | 9.0 | 0.00 | 0.48 | 0.00 | 58 | 1015.0 |
| 20260904172438 | 88 | 11 | 3.0 | 12.0 | 0.00 | 0.48 | 0.00 | 57 | 1015.0 |
| 20260904171937 | 88 | 241 | 3.0 | 12.0 | 0.00 | 0.48 | 0.00 | 57 | 1015.1 |
| 20260904171439 | 89 | 225 | 2.0 | 9.0 | 0.00 | 0.48 | 0.00 | 58 | 1015.0 |
| 20260904170934 | 88 | 277 | 2.0 | 12.0 | 0.00 | 0.48 | 0.00 | 59 | 1015.2 |
| 20260904170436 | 88 | 21 | 4.0 | 14.0 | 0.00 | 0.48 | 0.00 | 60 | 1015.2 |
| 20260904165935 | 87 | 276 | 4.0 | 14.0 | 0.00 | 0.48 | 0.00 | 61 | 1015.2 |
| 20260904165434 | 87 | 234 | 3.0 | 14.0 | 0.00 | 0.48 | 0.00 | 61 | 1015.2 |
| 20260904164936 | 87 | 326 | 3.0 | 14.0 | 0.00 | 0.48 | 0.00 | 61 | 1015.4 |
| 20260904164436 | 87 | 279 | 3.0 | 15.0 | 0.00 | 0.48 | 0.00 | 61 | 1015.4 |
| 20260904163936 | 87 | 210 | 3.0 | 15.0 | 0.00 | 0.48 | 0.00 | 63 | 1015.4 |
| 20260904163437 | 87 | 273 | 2.0 | 11.0 | 0.00 | 0.48 | 0.00 | 62 | 1015.5 |
| 20260904162937 | 87 | 204 | 3.0 | 7.0 | 0.00 | 0.48 | 0.00 | 62 | 1015.5 |
| 20260904162726 | 87 | 273 | 2.0 | 12.0 | 0.00 | 0.48 | 0.00 | 62 | 1015.7 |
| 20260904162227 | 86 | 205 | 2.0 | 12.0 | 0.00 | 0.48 | 0.00 | 63 | 1015.8 |
| 20260904161431 | 86 | 18 | 2.0 | 12.0 | 0.00 | 0.48 | 0.00 | 64 | 1015.9 |
| 20260904160930 | 85 | 326 | 2.0 | 16.0 | 0.00 | 0.48 | 0.00 | 64 | 1016.0 |
| 20260904160430 | 86 | 281 | 2.0 | 16.0 | 0.00 | 0.48 | 0.00 | 63 | 1016.0 |
| 20260904155929 | 85 | 296 | 2.0 | 8.0 | 0.00 | 0.48 | 0.00 | 67 | 1015.9 |
| 20260904155431 | 85 | 241 | 2.0 | 9.0 | 0.00 | 0.48 | 0.00 | 66 | 1015.9 |
| 20260904155023 | 84 | 39 | 2.0 | 12.0 | 0.00 | 0.48 | 0.00 | 68 | 1015.9 |
| 20260904155005 | 84 | 41 | 2.0 | 9.0 | 0.00 | 0.48 | 0.00 | 68 | 1015.8 |
| 20260904153931 | 83 | 296 | 3.0 | 14.0 | 0.00 | 0.48 | 0.00 | 71 | 1015.9 |
| 20260904153430 | 82 | 256 | 3.0 | 14.0 | 0.00 | 0.48 | 0.00 | 71 | 1015.9 |
| 20260904152929 | 81 | 326 | 3.0 | 11.0 | 0.00 | 0.48 | 0.00 | 73 | 1015.9 |
| 20260904152430 | 79 | 258 | 2.0 | 11.0 | 0.00 | 0.48 | 0.00 | 78 | 1015.9 |
| 20260904151929 | 79 | 326 | 2.0 | 11.0 | 0.00 | 0.48 | 0.00 | 79 | 1015.9 |
| 20260904151430 | 78 | 166 | 2.0 | 7.0 | 0.00 | 0.48 | 0.00 | 81 | 1015.9 |
| 20260904151227 | 77 | 41 | 3.0 | 14.0 | 0.00 | 0.48 | 0.00 | 83 | 1015.9 |
| 20260904150429 | 77 | 129 | 3.0 | 14.0 | 0.00 | 0.48 | 0.00 | 85 | 1015.9 |
| 20260904150221 | 76 | 303 | 3.0 | 16.0 | 0.00 | 0.48 | 0.00 | 90 | 1016.2 |
| 20260904150216 | 75 | 100 | 3.0 | 11.0 | 0.00 | 0.48 | 0.00 | 91 | 1016.4 |
| 20260904150133 | 76 | 222 | 2.0 | 7.0 | 0.00 | 0.48 | 0.00 | 88 | 1016.1 |
| 20260904145550 | 76 | 301 | 3.0 | 16.0 | 0.00 | 0.48 | 0.00 | 89 | 1016.2 |
| 20260904143930 | 75 | 205 | 3.0 | 11.0 | 0.00 | 0.48 | 0.00 | 92 | 1016.2 |
| 20260904143432 | 74 | 251 | 3.0 | 11.0 | 0.00 | 0.48 | 0.00 | 93 | 1016.2 |
| 20260904142932 | 74 | 271 | 3.0 | 11.0 | 0.00 | 0.48 | 0.00 | 94 | 1016.1 |
| 20260904142429 | 74 | 11 | 2.0 | 8.0 | 0.00 | 0.48 | 0.00 | 94 | 1016.2 |
| 20260904141929 | 74 | 273 | 2.0 | 12.0 | 0.00 | 0.48 | 0.00 | 95 | 1016.1 |
| 20260904141431 | 73 | 305 | 4.0 | 15.0 | 0.00 | 0.48 | 0.00 | 95 | 1016.1 |
| 20260904140931 | 73 | 229 | 4.0 | 15.0 | 0.00 | 0.48 | 0.00 | 95 | 1016.1 |
| 20260904140429 | 73 | 251 | 4.0 | 14.0 | 0.00 | 0.48 | 0.00 | 95 | 1016.1 |
| 20260904135932 | 73 | 203 | 3.0 | 12.0 | 0.00 | 0.48 | 0.00 | 95 | 1016.2 |
| 20260904135429 | 73 | 268 | 2.0 | 8.0 | 0.00 | 0.48 | 0.00 | 96 | 1016.2 |
| 20260904134930 | 73 | 286 | 2.0 | 8.0 | 0.00 | 0.48 | 0.00 | 96 | 1016.1 |
| 20260904134724 | 72 | 234 | 2.0 | 7.0 | 0.00 | 0.48 | 0.00 | 96 | 1016.1 |
| 20260904133931 | 72 | 117 | 1.0 | 5.0 | 0.00 | 0.48 | 0.00 | 95 | 1016.1 |
| 20260904133728 | 72 | 205 | 1.0 | 5.0 | 0.00 | 0.48 | 0.00 | 95 | 1015.9 |
| 20260904132931 | 72 | 234 | 1.0 | 5.0 | 0.00 | 0.48 | 0.00 | 95 | 1015.8 |
| 20260904132429 | 72 | 296 | 1.0 | 5.0 | 0.00 | 0.48 | 0.00 | 95 | 1015.9 |
| 20260904132233 | 72 | 171 | 1.0 | 5.0 | 0.00 | 0.48 | 0.00 | 95 | 1015.9 |
| 20260904131724 | 72 | 260 | 1.0 | 5.0 | 0.00 | 0.48 | 0.00 | 95 | 1015.9 |
| 20260904130931 | 72 | 125 | 1.0 | 5.0 | 0.00 | 0.48 | 0.00 | 95 | 1015.9 |
| 20260904130432 | 72 | 205 | 2.0 | 5.0 | 0.00 | 0.48 | 0.00 | 95 | 1015.9 |
| 20260904125932 | 72 | 188 | 2.0 | 4.0 | 0.00 | 0.48 | 0.00 | 95 | 1016.0 |
| 20260904125432 | 72 | 178 | 1.0 | 4.0 | 0.00 | 0.48 | 0.00 | 95 | 1016.0 |
| 20260904124930 | 72 | 162 | 2.0 | 4.0 | 0.00 | 0.48 | 0.00 | 95 | 1016.1 |
| 20260904124432 | 72 | 116 | 1.0 | 4.0 | 0.00 | 0.48 | 0.00 | 96 | 1016.1 |
| 20260904123931 | 72 | 187 | 1.0 | 4.0 | 0.00 | 0.48 | 0.00 | 95 | 1016.2 |
| 20260904123431 | 71 | 143 | 1.0 | 4.0 | 0.00 | 0.48 | 0.00 | 95 | 1016.0 |
| 20260904122924 | 71 | 246 | 1.0 | 4.0 | 0.00 | 0.48 | 0.00 | 95 | 1016.1 |
| 20260904122419 | 71 | 143 | 1.0 | 3.0 | 0.00 | 0.48 | 0.00 | 95 | 1015.9 |
| 20260904121913 | 71 | 171 | 1.0 | 3.0 | 0.00 | 0.48 | 0.00 | 95 | 1015.8 |
| 20260904121407 | 71 | 143 | 1.0 | 3.0 | 0.00 | 0.48 | 0.00 | 95 | 1015.8 |
| 20260904120907 | 71 | 155 | 1.0 | 4.0 | 0.00 | 0.48 | 0.00 | 95 | 1015.9 |
| 20260904120407 | 71 | 234 | 1.0 | 4.0 | 0.00 | 0.48 | 0.00 | 95 | 1015.8 |
| 20260904120206 | 71 | 125 | 1.0 | 3.0 | 0.00 | 0.48 | 0.00 | 95 | 1015.8 |
| 20260904115406 | 71 | 160 | 1.0 | 3.0 | 0.00 | 0.48 | 0.00 | 95 | 1015.8 |
| 20260904115202 | 71 | 171 | 1.0 | 3.0 | 0.00 | 0.48 | 0.00 | 95 | 1015.8 |
| 20260904114403 | 71 | 162 | 1.0 | 3.0 | 0.00 | 0.48 | 0.00 | 95 | 1015.9 |
| 20260904113904 | 71 | 234 | 0.0 | 1.0 | 0.00 | 0.48 | 0.00 | 95 | 1016.0 |
| 20260904113659 | 70 | 11 | 0.0 | 3.0 | 0.00 | 0.48 | 0.00 | 95 | 1015.9 |
| 20260904113249 | 71 | 279 | 0.0 | 1.0 | 0.00 | 0.48 | 0.00 | 95 | 1015.9 |
| 20260904112939 | 71 | 234 | 0.0 | 3.0 | 0.00 | 0.48 | 0.00 | 95 | 1015.9 |
| 20260904111903 | 71 | 305 | 0.0 | 3.0 | 0.00 | 0.48 | 0.00 | 95 | 1015.8 |
| 20260904111403 | 71 | 251 | 0.0 | 3.0 | 0.00 | 0.48 | 0.00 | 95 | 1015.8 |
| 20260904110902 | 70 | 171 | 1.0 | 3.0 | 0.00 | 0.48 | 0.00 | 95 | 1015.9 |
| 20260904110402 | 70 | 215 | 1.0 | 3.0 | 0.00 | 0.48 | 0.00 | 95 | 1015.7 |
| 20260904105902 | 71 | 132 | 1.0 | 3.0 | 0.00 | 0.48 | 0.00 | 95 | 1015.6 |
| 20260904105402 | 71 | 198 | 1.0 | 3.0 | 0.00 | 0.48 | 0.00 | 95 | 1015.8 |
| 20260904104903 | 71 | 198 | 0.0 | 3.0 | 0.00 | 0.48 | 0.00 | 95 | 1015.6 |
| 20260904104403 | 71 | 116 | 0.0 | 1.0 | 0.00 | 0.48 | 0.00 | 95 | 1015.5 |
| 20260904103903 | 71 | 143 | 0.0 | 3.0 | 0.00 | 0.48 | 0.00 | 95 | 1015.6 |
| 20260904103651 | 71 | 279 | 1.0 | 3.0 | 0.00 | 0.48 | 0.00 | 95 | 1015.6 |
| 20260904102904 | 71 | 143 | 1.0 | 3.0 | 0.00 | 0.48 | 0.00 | 95 | 1015.5 |
| 20260904102650 | 71 | 143 | 1.0 | 3.0 | 0.00 | 0.48 | 0.00 | 95 | 1015.4 |
| 20260904101904 | 71 | 234 | 1.0 | 3.0 | 0.00 | 0.48 | 0.00 | 95 | 1015.2 |
| 20260904101741 | 71 | 121 | 1.0 | 3.0 | 0.00 | 0.48 | 0.00 | 95 | 1015.3 |
| 20260904101432 | 71 | 234 | 1.0 | 3.0 | 0.00 | 0.48 | 0.00 | 95 | 1015.2 |
| 20260904100402 | 71 | 11 | 1.0 | 4.0 | 0.00 | 0.48 | 0.00 | 95 | 1015.3 |
| 20260904095903 | 71 | 0 | 1.0 | 5.0 | 0.00 | 0.48 | 0.00 | 95 | 1015.4 |
| 20260904095402 | 71 | 312 | 2.0 | 5.0 | 0.00 | 0.48 | 0.00 | 95 | 1015.2 |
| 20260904094903 | 71 | 326 | 1.0 | 4.0 | 0.00 | 0.48 | 0.00 | 95 | 1015.1 |
| 20260904094403 | 71 | 348 | 1.0 | 4.0 | 0.00 | 0.48 | 0.00 | 95 | 1015.3 |
| 20260904093901 | 70 | 11 | 0.0 | 3.0 | 0.00 | 0.48 | 0.00 | 94 | 1014.8 |
| 20260904093402 | 70 | 54 | 0.0 | 3.0 | 0.00 | 0.48 | 0.00 | 94 | 1014.5 |
| 20260904092902 | 70 | 187 | 0.0 | 1.0 | 0.00 | 0.48 | 0.00 | 94 | 1014.5 |
| 20260904092402 | 70 | 326 | 0.0 | 1.0 | 0.00 | 0.48 | 0.00 | 94 | 1014.5 |
| 20260904091858 | 70 | 234 | 0.0 | 3.0 | 0.00 | 0.48 | 0.00 | 94 | 1014.4 |
| 20260904091349 | 70 | 11 | 1.0 | 3.0 | 0.00 | 0.48 | 0.00 | 94 | 1014.2 |
| 20260904090843 | 70 | 143 | 0.0 | 1.0 | 0.00 | 0.48 | 0.00 | 94 | 1014.4 |
| 20260904090338 | 70 | 54 | 0.0 | 1.0 | 0.00 | 0.48 | 0.00 | 94 | 1014.5 |
| 20260904090128 | 70 | 11 | 0.0 | 3.0 | 0.00 | 0.48 | 0.00 | 94 | 1014.4 |
| 20260904085333 | 70 | 143 | 0.0 | 3.0 | 0.00 | 0.48 | 0.00 | 94 | 1014.5 |
| 20260904084834 | 70 | 143 | 0.0 | 3.0 | 0.00 | 0.48 | 0.00 | 94 | 1014.6 |
| 20260904084333 | 70 | 143 | 1.0 | 1.0 | 0.00 | 0.48 | 0.00 | 94 | 1014.7 |
| 20260904083833 | 70 | 188 | 0.0 | 1.0 | 0.00 | 0.48 | 0.00 | 94 | 1014.6 |
| 20260904083333 | 70 | 326 | 1.0 | 3.0 | 0.00 | 0.48 | 0.00 | 94 | 1014.7 |
| 20260904082834 | 70 | 143 | 1.0 | 3.0 | 0.00 | 0.48 | 0.00 | 94 | 1014.7 |
| 20260904082331 | 71 | 143 | 0.0 | 1.0 | 0.00 | 0.48 | 0.00 | 94 | 1014.6 |
| 20260904081831 | 71 | 234 | 0.0 | 1.0 | 0.00 | 0.48 | 0.00 | 94 | 1014.7 |
| 20260904081622 | 71 | 54 | 0.0 | 1.0 | 0.00 | 0.48 | 0.00 | 94 | 1014.7 |
| 20260904080830 | 71 | 261 | 0.0 | 1.0 | 0.00 | 0.48 | 0.00 | 94 | 1014.9 |
| 20260904080330 | 71 | 188 | 0.0 | 1.0 | 0.00 | 0.48 | 0.00 | 94 | 1014.8 |
| 20260904075829 | 71 | 100 | 0.0 | 1.0 | 0.00 | 0.48 | 0.00 | 94 | 1014.8 |
| 20260904075623 | 71 | 279 | 0.0 | 1.0 | 0.00 | 0.48 | 0.00 | 94 | 1014.9 |
| 20260904074830 | 71 | 279 | 0.0 | 1.0 | 0.00 | 0.48 | 0.00 | 94 | 1015.0 |
| 20260904074331 | 71 | 100 | 0.0 | 1.0 | 0.00 | 0.48 | 0.00 | 94 | 1015.0 |
| 20260904073829 | 71 | 143 | 0.0 | 1.0 | 0.00 | 0.48 | 0.00 | 94 | 1015.1 |
| 20260904073331 | 71 | 54 | 0.0 | 1.0 | 0.00 | 0.48 | 0.00 | 94 | 1015.2 |
| 20260904072828 | 71 | 11 | 0.0 | 1.0 | 0.00 | 0.48 | 0.00 | 94 | 1015.3 |
| 20260904072331 | 71 | 100 | 0.0 | 1.0 | 0.00 | 0.48 | 0.00 | 93 | 1015.2 |
| 20260904071828 | 71 | 171 | 1.0 | 3.0 | 0.00 | 0.48 | 0.00 | 93 | 1015.3 |
| 20260904071328 | 71 | 143 | 1.0 | 4.0 | 0.00 | 0.48 | 0.00 | 93 | 1015.2 |
| 20260904070829 | 71 | 171 | 1.0 | 4.0 | 0.00 | 0.48 | 0.00 | 93 | 1015.2 |
| 20260904070329 | 71 | 198 | 1.0 | 3.0 | 0.00 | 0.48 | 0.00 | 93 | 1015.2 |
| 20260904065914 | 71 | 162 | 0.0 | 1.0 | 0.00 | 0.48 | 0.00 | 93 | 1014.9 |
| 20260904065858 | 71 | 188 | 1.0 | 3.0 | 0.00 | 0.48 | 0.00 | 93 | 1015.2 |
| 20260904064827 | 71 | 234 | 0.0 | 1.0 | 0.00 | 0.48 | 0.00 | 93 | 1014.7 |
| 20260904064327 | 71 | 171 | 0.0 | 3.0 | 0.00 | 0.48 | 0.00 | 93 | 1014.7 |
| 20260904063829 | 71 | 279 | 0.0 | 3.0 | 0.00 | 0.48 | 0.00 | 93 | 1014.6 |
| 20260904063327 | 71 | 54 | 0.0 | 1.0 | 0.00 | 0.48 | 0.00 | 93 | 1014.4 |
| 20260904062828 | 71 | 125 | 0.0 | 3.0 | 0.00 | 0.48 | 0.00 | 93 | 1014.2 |
| 20260904062328 | 71 | 100 | 0.0 | 3.0 | 0.00 | 0.48 | 0.00 | 93 | 1014.2 |
| 20260904061828 | 71 | 100 | 0.0 | 1.0 | 0.00 | 0.48 | 0.00 | 93 | 1014.3 |
| 20260904061328 | 71 | 82 | 0.0 | 1.0 | 0.00 | 0.48 | 0.00 | 93 | 1014.3 |
| 20260904061117 | 71 | 205 | 0.0 | 1.0 | 0.00 | 0.48 | 0.00 | 93 | 1014.2 |
| 20260904060321 | 71 | 54 | 1.0 | 3.0 | 0.00 | 0.48 | 0.00 | 93 | 1014.2 |
| 20260904055821 | 71 | 326 | 1.0 | 3.0 | 0.00 | 0.48 | 0.00 | 93 | 1014.1 |
| 20260904055321 | 71 | 33 | 0.0 | 5.0 | 0.00 | 0.48 | 0.00 | 92 | 1014.1 |
| 20260904055112 | 71 | 54 | 1.0 | 5.0 | 0.00 | 0.48 | 0.00 | 92 | 1014.4 |
| 20260904054323 | 71 | 162 | 1.0 | 4.0 | 0.00 | 0.48 | 0.00 | 92 | 1014.4 |
| 20260904053821 | 72 | 178 | 1.0 | 5.0 | 0.00 | 0.48 | 0.00 | 92 | 1014.7 |
| 20260904053410 | 72 | 143 | 2.0 | 5.0 | 0.00 | 0.48 | 0.00 | 92 | 1014.7 |
| 20260904053352 | 72 | 284 | 1.0 | 5.0 | 0.00 | 0.48 | 0.00 | 92 | 1014.7 |
| 20260904052321 | 72 | 171 | 2.0 | 5.0 | 0.00 | 0.48 | 0.00 | 92 | 1015.0 |
| 20260904051911 | 72 | 270 | 2.0 | 5.0 | 0.00 | 0.48 | 0.00 | 92 | 1015.2 |
| 20260904051854 | 72 | 152 | 2.0 | 5.0 | 0.00 | 0.48 | 0.00 | 92 | 1015.3 |
| 20260904050818 | 72 | 181 | 1.0 | 4.0 | 0.00 | 0.48 | 0.00 | 92 | 1014.9 |
| 20260904050413 | 72 | 134 | 1.0 | 3.0 | 0.00 | 0.48 | 0.00 | 92 | 1014.9 |
| 20260904050354 | 72 | 116 | 1.0 | 3.0 | 0.00 | 0.48 | 0.00 | 92 | 1014.7 |
| 20260904045318 | 72 | 158 | 1.0 | 3.0 | 0.00 | 0.48 | 0.00 | 91 | 1015.3 |
| 20260904044819 | 72 | 129 | 1.0 | 5.0 | 0.08 | 0.48 | 0.00 | 91 | 1015.8 |
| 20260904044321 | 73 | 279 | 2.0 | 5.0 | 0.26 | 0.48 | 0.00 | 91 | 1016.1 |
| 20260904043817 | 73 | 154 | 2.0 | 5.0 | 0.48 | 0.48 | 0.00 | 90 | 1016.7 |
| 20260904043318 | 73 | 191 | 1.0 | 5.0 | 0.48 | 0.48 | 0.00 | 90 | 1016.9 |
| 20260904042818 | 73 | 100 | 0.0 | 3.0 | 0.48 | 0.48 | 0.00 | 90 | 1016.9 |
| 20260904042317 | 73 | 54 | 1.0 | 3.0 | 0.48 | 0.48 | 0.00 | 90 | 1017.1 |
| 20260904041819 | 73 | 143 | 1.0 | 7.0 | 0.48 | 0.48 | 0.00 | 89 | 1017.3 |
| 20260904041317 | 73 | 100 | 2.0 | 8.0 | 0.48 | 0.48 | 0.00 | 88 | 1017.3 |
| 20260904040816 | 73 | 171 | 2.0 | 14.0 | 0.48 | 0.48 | 0.00 | 88 | 1017.5 |
| 20260904040317 | 74 | 167 | 3.0 | 14.0 | 0.48 | 0.48 | 0.00 | 87 | 1017.9 |
| 20260904040118 | 74 | 263 | 5.0 | 24.0 | 0.48 | 0.48 | 0.48 | 86 | 1017.9 |
| 20260904035316 | 75 | 248 | 7.0 | 28.0 | 0.48 | 0.48 | 0.48 | 85 | 1018.1 |
| 20260904034817 | 76 | 258 | 10.0 | 40.0 | 0.40 | 0.40 | 0.39 | 85 | 1018.4 |
| 20260904034613 | 78 | 276 | 8.0 | 40.0 | 0.22 | 0.22 | 0.21 | 85 | 1018.2 |
| 20260904033816 | 80 | 260 | 4.0 | 19.0 | 0.00 | 0.00 | 0.00 | 88 | 1017.5 |
| 20260904033317 | 79 | 275 | 2.0 | 9.0 | 0.00 | 0.00 | 0.00 | 88 | 1015.8 |
| 20260904032812 | 80 | 11 | 2.0 | 9.0 | 0.00 | 0.00 | 0.00 | 89 | 1015.3 |
| 20260904032311 | 80 | 312 | 1.0 | 7.0 | 0.00 | 0.00 | 0.00 | 89 | 1015.2 |
| 20260904031811 | 80 | 279 | 2.0 | 7.0 | 0.00 | 0.00 | 0.00 | 89 | 1015.4 |
| 20260904031311 | 80 | 21 | 2.0 | 7.0 | 0.00 | 0.00 | 0.00 | 89 | 1015.1 |
| 20260904030812 | 80 | 30 | 1.0 | 7.0 | 0.00 | 0.00 | 0.00 | 89 | 1015.3 |
| 20260904030310 | 80 | 11 | 0.0 | 1.0 | 0.00 | 0.00 | 0.00 | 89 | 1014.8 |
| 20260904025812 | 80 | 54 | 0.0 | 1.0 | 0.00 | 0.00 | 0.00 | 89 | 1014.9 |
| 20260904025311 | 80 | 11 | 0.0 | 3.0 | 0.00 | 0.00 | 0.00 | 88 | 1015.0 |
| 20260904024813 | 80 | 54 | 1.0 | 3.0 | 0.00 | 0.00 | 0.00 | 88 | 1014.9 |
| 20260904024311 | 80 | 54 | 0.0 | 3.0 | 0.00 | 0.00 | 0.00 | 88 | 1015.2 |
| 20260904023811 | 80 | 11 | 0.0 | 1.0 | 0.00 | 0.00 | 0.00 | 88 | 1015.3 |
| 20260904023602 | 80 | 353 | 0.0 | 1.0 | 0.00 | 0.00 | 0.00 | 88 | 1015.4 |
| 20260904022810 | 80 | 28 | 0.0 | 1.0 | 0.00 | 0.00 | 0.00 | 87 | 1015.5 |
| 20260904022310 | 80 | 326 | 0.0 | 1.0 | 0.00 | 0.00 | 0.00 | 87 | 1015.5 |
| 20260904021811 | 80 | 11 | 0.0 | 1.0 | 0.00 | 0.00 | 0.00 | 87 | 1015.4 |
| 20260904021601 | 80 | 234 | 0.0 | 1.0 | 0.00 | 0.00 | 0.00 | 87 | 1015.2 |
| 20260904020812 | 81 | 54 | 0.0 | 3.0 | 0.00 | 0.00 | 0.00 | 86 | 1015.2 |
| 20260904020311 | 81 | 69 | 0.0 | 3.0 | 0.00 | 0.00 | 0.00 | 86 | 1015.3 |
| 20260904015812 | 81 | 54 | 0.0 | 3.0 | 0.00 | 0.00 | 0.00 | 86 | 1015.3 |
| 20260904015313 | 81 | 54 | 0.0 | 3.0 | 0.00 | 0.00 | 0.00 | 86 | 1015.3 |
| 20260904015101 | 81 | 100 | 0.0 | 3.0 | 0.00 | 0.00 | 0.00 | 85 | 1015.3 |
| 20260904014311 | 81 | 54 | 0.0 | 3.0 | 0.00 | 0.00 | 0.00 | 85 | 1015.3 |
| 20260904013808 | 82 | 54 | 0.0 | 1.0 | 0.00 | 0.00 | 0.00 | 84 | 1015.3 |
| 20260904013306 | 82 | 54 | 0.0 | 1.0 | 0.00 | 0.00 | 0.00 | 84 | 1015.3 |
| 20260904012806 | 82 | 11 | 0.0 | 3.0 | 0.00 | 0.00 | 0.00 | 84 | 1015.3 |
| 20260904012306 | 82 | 69 | 0.0 | 3.0 | 0.00 | 0.00 | 0.00 | 84 | 1015.2 |
| 20260904011808 | 82 | 116 | 1.0 | 3.0 | 0.00 | 0.00 | 0.00 | 83 | 1015.2 |
| 20260904011306 | 82 | 82 | 1.0 | 1.0 | 0.00 | 0.00 | 0.00 | 83 | 1015.1 |
| 20260904010806 | 83 | 100 | 0.0 | 1.0 | 0.00 | 0.00 | 0.00 | 82 | 1015.2 |
| 20260904010303 | 83 | 117 | 0.0 | 1.0 | 0.00 | 0.00 | 0.00 | 82 | 1015.2 |
| 20260904005802 | 83 | 234 | 0.0 | 1.0 | 0.00 | 0.00 | 0.00 | 81 | 1015.2 |
| 20260904005306 | 83 | 82 | 0.0 | 3.0 | 0.00 | 0.00 | 0.00 | 81 | 1015.2 |
| 20260904005053 | 84 | 188 | 0.0 | 3.0 | 0.00 | 0.00 | 0.00 | 80 | 1015.3 |
| 20260904004304 | 84 | 218 | 0.0 | 1.0 | 0.00 | 0.00 | 0.00 | 80 | 1015.4 |
| 20260904003804 | 84 | 82 | 0.0 | 1.0 | 0.00 | 0.00 | 0.00 | 79 | 1015.5 |
| 20260904003303 | 84 | 100 | 0.0 | 1.0 | 0.00 | 0.00 | 0.00 | 79 | 1015.7 |
| 20260904002803 | 85 | 143 | 0.0 | 1.0 | 0.00 | 0.00 | 0.00 | 78 | 1015.9 |
| 20260904002553 | 85 | 100 | 0.0 | 1.0 | 0.00 | 0.00 | 0.00 | 78 | 1015.9 |
| 20260904001802 | 85 | 54 | 0.0 | 3.0 | 0.00 | 0.00 | 0.00 | 77 | 1015.8 |
| 20260904001303 | 86 | 117 | 0.0 | 3.0 | 0.00 | 0.00 | 0.00 | 76 | 1015.8 |
| 20260904000802 | 86 | 117 | 0.0 | 3.0 | 0.00 | 0.00 | 0.00 | 75 | 1015.8 |
| 20260904000303 | 87 | 73 | 0.0 | 3.0 | 0.00 | 0.00 | 0.00 | 75 | 1015.8 |
| 20260904000050 | 87 | 54 | 0.0 | 3.0 | 0.00 | 0.00 | 0.00 | 74 | 1015.8 |
| 20260903235305 | 87 | 143 | 1.0 | 3.0 | 0.00 | 0.00 | 0.00 | 73 | 1015.6 |
| 20260903235056 | 88 | 107 | 1.0 | 3.0 | 0.00 | 0.00 | 0.00 | 72 | 1015.6 |
| 20260903234551 | 88 | 188 | 0.0 | 3.0 | 0.00 | 0.00 | 0.00 | 72 | 1015.5 |
| 20260903233803 | 88 | 11 | 0.0 | 1.0 | 0.00 | 0.00 | 0.00 | 71 | 1015.3 |
| 20260903233301 | 89 | 100 | 0.0 | 3.0 | 0.00 | 0.00 | 0.00 | 70 | 1015.2 |
| 20260903232802 | 89 | 117 | 0.0 | 3.0 | 0.00 | 0.00 | 0.00 | 69 | 1015.2 |
| 20260903232553 | 89 | 234 | 1.0 | 4.0 | 0.00 | 0.00 | 0.00 | 69 | 1015.1 |
| 20260903231802 | 90 | 162 | 1.0 | 4.0 | 0.00 | 0.00 | 0.00 | 67 | 1015.1 |
| 20260903231303 | 90 | 171 | 1.0 | 4.0 | 0.00 | 0.00 | 0.00 | 67 | 1015.0 |
| 20260903231053 | 90 | 143 | 1.0 | 4.0 | 0.00 | 0.00 | 0.00 | 66 | 1015.1 |
| 20260903230302 | 91 | 188 | 1.0 | 5.0 | 0.00 | 0.00 | 0.00 | 65 | 1015.2 |
| 20260903225759 | 91 | 160 | 1.0 | 5.0 | 0.00 | 0.00 | 0.00 | 65 | 1015.1 |
| 20260903225252 | 91 | 171 | 1.0 | 4.0 | 0.00 | 0.00 | 0.00 | 64 | 1015.0 |
| 20260903224748 | 92 | 210 | 1.0 | 4.0 | 0.00 | 0.00 | 0.00 | 64 | 1014.9 |
| 20260903224241 | 92 | 215 | 1.0 | 3.0 | 0.00 | 0.00 | 0.00 | 63 | 1014.8 |
| 20260903224036 | 92 | 125 | 1.0 | 4.0 | 0.00 | 0.00 | 0.00 | 62 | 1014.7 |
| 20260903223238 | 92 | 100 | 2.0 | 5.0 | 0.00 | 0.00 | 0.00 | 61 | 1014.7 |
| 20260903222739 | 92 | 215 | 2.0 | 8.0 | 0.00 | 0.00 | 0.00 | 60 | 1014.8 |
| 20260903222239 | 92 | 162 | 2.0 | 8.0 | 0.00 | 0.00 | 0.00 | 60 | 1014.8 |
| 20260903221736 | 92 | 215 | 2.0 | 7.0 | 0.00 | 0.00 | 0.00 | 60 | 1014.7 |
| 20260903221236 | 93 | 151 | 2.0 | 8.0 | 0.00 | 0.00 | 0.00 | 58 | 1014.7 |
| 20260903220738 | 93 | 167 | 2.0 | 8.0 | 0.00 | 0.00 | 0.00 | 59 | 1014.7 |
| 20260903220235 | 93 | 194 | 2.0 | 8.0 | 0.00 | 0.00 | 0.00 | 58 | 1014.7 |
| 20260903215735 | 93 | 198 | 3.0 | 11.0 | 0.00 | 0.00 | 0.00 | 56 | 1014.7 |
| 20260903215236 | 93 | 198 | 3.0 | 11.0 | 0.00 | 0.00 | 0.00 | 55 | 1014.8 |
| 20260903214732 | 93 | 196 | 4.0 | 9.0 | 0.00 | 0.00 | 0.00 | 56 | 1014.8 |
| 20260903214522 | 94 | 201 | 4.0 | 9.0 | 0.00 | 0.00 | 0.00 | 55 | 1014.7 |
| 20260903214021 | 94 | 198 | 2.0 | 9.0 | 0.00 | 0.00 | 0.00 | 56 | 1014.7 |
| 20260903213232 | 94 | 210 | 3.0 | 9.0 | 0.00 | 0.00 | 0.00 | 56 | 1014.6 |
| 20260903212729 | 93 | 153 | 3.0 | 9.0 | 0.00 | 0.00 | 0.00 | 56 | 1014.7 |
| 20260903212327 | 93 | 282 | 5.0 | 12.0 | 0.00 | 0.00 | 0.00 | 56 | 1014.8 |
| 20260903212307 | 93 | 261 | 4.0 | 12.0 | 0.00 | 0.00 | 0.00 | 57 | 1014.6 |
| 20260903211522 | 93 | 175 | 4.0 | 12.0 | 0.00 | 0.00 | 0.00 | 55 | 1014.8 |
| 20260903210725 | 93 | 194 | 3.0 | 11.0 | 0.00 | 0.00 | 0.00 | 58 | 1014.9 |
| 20260903210218 | 93 | 174 | 3.0 | 11.0 | 0.00 | 0.00 | 0.00 | 57 | 1014.9 |
| 20260903205712 | 93 | 166 | 3.0 | 11.0 | 0.00 | 0.00 | 0.00 | 58 | 1014.9 |
| 20260903205208 | 94 | 248 | 3.0 | 11.0 | 0.00 | 0.00 | 0.00 | 57 | 1014.8 |
| 20260903204708 | 93 | 199 | 3.0 | 9.0 | 0.00 | 0.00 | 0.00 | 57 | 1014.9 |
| 20260903204208 | 93 | 176 | 3.0 | 9.0 | 0.00 | 0.00 | 0.00 | 57 | 1015.0 |
| 20260903203708 | 93 | 196 | 3.0 | 11.0 | 0.00 | 0.00 | 0.00 | 58 | 1015.0 |
| 20260903203502 | 93 | 237 | 3.0 | 11.0 | 0.00 | 0.00 | 0.00 | 60 | 1015.0 |
| 20260903202708 | 92 | 227 | 3.0 | 9.0 | 0.00 | 0.00 | 0.00 | 58 | 1015.1 |
| 20260903202207 | 93 | 196 | 3.0 | 8.0 | 0.00 | 0.00 | 0.00 | 59 | 1015.1 |
| 20260903201708 | 92 | 143 | 3.0 | 8.0 | 0.00 | 0.00 | 0.00 | 59 | 1015.2 |
| 20260903201209 | 92 | 217 | 3.0 | 9.0 | 0.00 | 0.00 | 0.00 | 59 | 1015.2 |
| 20260903200708 | 91 | 191 | 3.0 | 9.0 | 0.00 | 0.00 | 0.00 | 60 | 1015.3 |
| 20260903200208 | 91 | 168 | 3.0 | 12.0 | 0.00 | 0.00 | 0.00 | 60 | 1015.4 |
| 20260903195708 | 91 | 234 | 3.0 | 12.0 | 0.00 | 0.00 | 0.00 | 61 | 1015.4 |
| 20260903195503 | 91 | 125 | 3.0 | 9.0 | 0.00 | 0.00 | 0.00 | 62 | 1015.6 |
| 20260903194709 | 90 | 143 | 3.0 | 11.0 | 0.00 | 0.00 | 0.00 | 61 | 1015.8 |
| 20260903194212 | 89 | 180 | 3.0 | 11.0 | 0.00 | 0.00 | 0.00 | 63 | 1015.9 |
| 20260903193708 | 89 | 255 | 3.0 | 8.0 | 0.00 | 0.00 | 0.00 | 62 | 1015.9 |
| 20260903193207 | 90 | 188 | 2.0 | 7.0 | 0.00 | 0.00 | 0.00 | 61 | 1016.1 |
| 20260903192708 | 89 | 129 | 2.0 | 9.0 | 0.00 | 0.00 | 0.00 | 64 | 1016.2 |
| 20260903192208 | 89 | 210 | 3.0 | 9.0 | 0.00 | 0.00 | 0.00 | 64 | 1016.2 |
| 20260903191707 | 88 | 181 | 2.0 | 8.0 | 0.00 | 0.00 | 0.00 | 67 | 1016.2 |
| 20260903191209 | 88 | 274 | 2.0 | 8.0 | 0.00 | 0.00 | 0.00 | 64 | 1016.2 |
| 20260903191002 | 88 | 234 | 2.0 | 8.0 | 0.00 | 0.00 | 0.00 | 65 | 1016.3 |
| 20260903190208 | 88 | 271 | 2.0 | 8.0 | 0.00 | 0.00 | 0.00 | 65 | 1016.4 |
| 20260903185709 | 88 | 215 | 2.0 | 8.0 | 0.00 | 0.00 | 0.00 | 66 | 1016.4 |
| 20260903185210 | 88 | 210 | 3.0 | 8.0 | 0.00 | 0.00 | 0.00 | 65 | 1016.5 |
| 20260903184706 | 88 | 208 | 3.0 | 8.0 | 0.00 | 0.00 | 0.00 | 64 | 1016.6 |
| 20260903184207 | 88 | 171 | 3.0 | 9.0 | 0.00 | 0.00 | 0.00 | 65 | 1016.7 |
| 20260903183707 | 88 | 194 | 3.0 | 11.0 | 0.00 | 0.00 | 0.00 | 65 | 1017.0 |
| 20260903183206 | 88 | 187 | 2.0 | 11.0 | 0.00 | 0.00 | 0.00 | 64 | 1016.7 |
| 20260903182707 | 88 | 222 | 2.0 | 9.0 | 0.00 | 0.00 | 0.00 | 65 | 1016.6 |
| 20260903182206 | 88 | 194 | 3.0 | 9.0 | 0.00 | 0.00 | 0.00 | 64 | 1016.5 |